Theta_e
322 321 322 325 326 325 326 327 326 328 329 328 328 326 326 326 325 316 308 316 317 327 325 315 308 306 307 304 303 299 292 289 291 291 292 297 295 298 301 302 306 310 313 319 325
319 319 319 320 320 325 325 326 325 327 328 327 327 325 324 323 312 308 317 326 325 325 313 307 303 304 302 302 300 296 291 293 296 294 295 297 297 299 301 305 304 307 313 323 325
319 318 318 319 318 324 324 325 325 326 327 326 325 325 324 316 305 305 322 326 324 321 316 313 309 305 301 301 299 295 293 297 297 297 298 298 297 299 300 298 307 308 316 321 324
318 317 318 318 319 320 324 324 324 325 327 325 324 324 322 309 296 309 324 327 323 317 313 310 310 305 302 298 300 292 296 297 299 299 298 297 298 299 299 299 306 314 322 322 323
317 317 317 317 318 320 323 324 324 325 325 324 323 322 313 304 303 317 325 324 313 312 310 307 308 307 303 301 299 296 296 297 297 298 297 298 296 298 297 298 314 318 322 320 322
314 316 317 317 316 320 322 323 324 325 325 323 323 321 308 299 314 320 315 311 311 311 309 310 307 308 303 302 298 298 298 297 296 296 297 297 295 296 296 309 313 318 319 320 320
312 314 315 316 317 320 322 323 324 324 324 323 323 314 306 302 315 315 312 310 313 311 307 310 309 306 303 301 301 298 294 294 294 295 295 297 292 293 295 312 312 313 316 318 319
311 313 315 316 315 319 322 323 324 323 323 323 321 311 303 314 317 315 312 312 314 313 311 311 310 304 301 301 300 294 293 289 293 294 294 294 290 295 299 311 310 311 311 313 315
310 312 314 315 314 317 321 323 322 323 323 322 312 307 299 319 311 314 313 308 311 312 312 312 308 302 302 297 293 294 286 286 290 293 292 291 291 295 296 309 309 310 311 313 314
310 310 313 313 314 316 320 322 322 322 320 315 312 300 306 303 311 312 314 312 308 308 306 305 302 297 296 294 287 289 286 287 289 292 289 289 289 290 293 302 306 308 307 309 312
309 309 312 313 314 314 319 318 310 308 307 301 302 297 302 308 314 311 312 309 308 305 298 301 295 292 294 296 293 289 289 288 289 292 290 290 292 292 291 290 294 296 298 303 308
308 309 311 312 314 314 317 310 309 309 298 304 303 299 303 310 303 307 312 303 301 297 298 296 293 298 298 297 293 291 288 288 289 291 290 288 290 290 290 291 293 295 294 297 299
307 308 310 312 314 312 312 312 313 312 295 298 302 298 300 303 301 302 306 302 299 295 296 293 297 300 297 294 291 292 287 288 289 289 289 286 287 288 290 289 291 292 291 292 295
306 307 310 312 308 311 310 313 314 308 288 290 296 297 300 302 297 307 305 301 296 294 296 295 300 296 295 293 294 289 293 290 288 288 285 286 281 284 288 290 290 291 291 291 292
305 307 308 313 310 307 312 314 306 303 278 291 293 302 299 296 297 300 305 300 293 293 293 291 295 294 292 292 295 291 292 290 289 286 283 282 279 282 284 289 289 291 291 291 291
304 306 308 308 308 313 313 312 304 285 277 286 291 291 294 293 294 298 298 301 300 294 293 291 298 297 296 296 296 293 291 289 288 285 280 283 281 281 282 286 291 292 293 292 292
304 304 305 309 306 312 311 303 284 280 287 283 285 291 291 289 291 294 293 291 290 285 286 289 291 294 297 292 295 291 287 280 279 278 279 279 279 289 284 287 289 293 293 291 293
303 304 305 307 314 311 305 293 279 282 283 287 288 290 287 289 289 291 291 288 291 287 284 284 281 289 294 293 289 288 287 280 275 277 279 279 277 283 286 287 289 289 289 291 293
303 299 302 307 312 310 297 284 284 284 286 286 288 285 285 289 288 288 288 288 290 288 283 282 283 292 292 294 294 289 285 289 280 272 275 278 281 286 285 287 289 290 290 292 294
293 294 301 311 312 304 292 287 283 288 289 290 283 286 282 286 284 285 286 290 289 292 291 286 280 287 288 293 293 290 292 282 281 275 271 275 276 282 283 286 288 289 290 292 294
290 292 299 311 309 297 286 287 286 290 292 287 284 283 285 285 285 285 285 287 292 291 293 286 285 283 288 287 287 287 285 285 286 281 276 272 277 283 287 289 288 291 291 292 293
289 286 297 303 292 293 289 289 292 290 290 289 288 286 286 287 283 285 284 286 294 293 287 289 286 280 284 288 290 290 288 287 283 278 278 278 279 285 285 286 289 290 291 292 293
285 285 296 297 285 285 293 291 290 289 288 287 287 288 289 288 283 286 286 291 293 292 288 289 283 278 283 286 288 286 286 286 285 283 281 278 280 286 286 287 288 291 291 292 293
287 282 288 291 289 289 289 289 287 292 289 289 288 290 289 287 287 285 286 289 291 291 295 294 285 282 281 284 287 283 284 284 285 281 280 280 281 285 287 287 287 290 292 292 293
286 282 284 282 284 289 291 290 287 286 290 290 286 290 289 285 284 284 286 287 289 293 292 291 282 283 286 287 288 286 285 285 284 286 282 283 283 287 288 288 288 291 291 291 292
284 283 285 284 286 289 291 288 287 289 289 287 286 289 290 285 287 283 286 286 288 287 288 288 280 285 280 285 286 286 287 287 287 287 285 282 283 289 287 290 290 291 292 292 293
290 288 286 285 284 287 287 288 288 291 291 291 289 288 287 288 291 292 293 292 290 288 288 285 282 279 278 283 284 280 285 286 287 287 288 281 289 287 288 289 290 291 292 293 293
Wind_Speed
19 16 16 21 26 24 24 23 21 23 23 22 20 17 14 11 10 4 6 5 5 5 4 4 1 4 2 2 2 4 5 3 6 7 4 5 4 3 2 7 1 4 6 8 15
15 16 14 15 11 25 24 23 22 24 24 22 20 17 13 10 4 4 6 10 7 6 3 3 5 7 2 4 3 4 4 9 6 6 6 7 6 8 5 4 1 3 4 16 16
18 16 16 17 14 23 25 22 23 24 25 22 19 17 14 6 4 8 12 12 8 6 3 2 1 4 6 4 1 2 5 5 5 4 6 8 6 4 8 3 7 9 16 17 17
16 16 17 16 18 22 25 22 23 26 25 23 21 17 14 4 10 3 20 14 9 5 3 2 1 4 8 4 4 2 4 4 3 4 6 8 7 5 5 6 8 12 26 18 18
15 15 16 16 17 23 25 23 25 28 26 25 23 19 9 6 6 1 14 12 5 6 6 3 6 4 14 5 2 3 3 4 2 6 4 8 2 5 6 2 8 11 20 18 16
5 8 17 18 15 20 26 26 27 29 27 26 24 19 5 10 2 7 10 7 5 4 3 5 2 2 7 5 3 5 10 8 4 4 4 7 3 5 4 6 9 15 17 15 16
4 8 12 12 17 17 25 25 29 30 29 27 24 11 3 5 5 9 8 3 1 5 5 4 2 5 3 6 6 12 11 6 4 3 5 6 1 7 4 9 13 11 13 12 12
4 7 12 15 9 16 22 23 35 29 29 26 26 6 4 1 6 11 10 6 8 9 9 4 12 9 6 3 7 4 8 5 3 4 1 5 10 5 6 13 11 10 9 9 9
3 7 11 14 11 11 22 26 26 27 29 27 14 6 4 6 7 6 7 8 10 8 8 8 8 5 4 9 3 3 9 5 4 4 3 4 7 6 6 9 12 11 10 10 8
4 7 10 10 14 9 23 25 27 29 23 13 7 9 5 8 6 10 5 13 8 15 7 6 6 5 4 11 19 15 8 5 5 6 2 5 6 2 8 9 13 11 9 9 10
6 6 10 11 13 11 21 13 17 14 11 6 16 4 14 10 9 10 11 8 8 5 8 5 5 16 19 19 8 1 4 6 4 4 5 8 8 9 6 4 8 9 8 10 13
5 8 10 11 14 18 16 11 15 4 10 4 19 6 9 12 9 12 13 6 8 14 11 7 19 13 13 15 7 2 2 5 2 1 2 5 13 4 7 9 10 13 12 13 7
5 7 10 13 19 13 19 16 13 5 7 6 7 7 15 8 8 13 12 6 6 9 19 9 3 15 16 14 11 9 5 7 7 4 3 4 8 5 6 4 4 8 7 8 13
8 8 11 13 10 12 17 17 19 7 5 7 6 5 10 9 5 7 7 5 1 10 12 3 9 22 19 16 14 17 7 9 3 6 8 4 7 7 8 9 8 10 10 11 12
7 8 11 17 4 17 15 21 11 7 7 9 5 7 7 11 17 9 6 4 8 6 5 3 15 21 23 24 19 5 3 1 3 4 4 4 1 7 2 15 9 11 12 12 10
8 7 7 7 7 16 19 21 9 5 6 9 8 10 21 4 3 13 9 2 7 5 6 3 1 10 12 16 21 5 9 6 3 4 7 10 8 7 8 9 13 12 13 11 10
9 10 6 3 11 18 15 12 6 6 10 8 9 18 18 9 7 18 18 12 8 9 6 3 3 3 10 12 12 7 8 3 1 3 13 2 5 14 5 8 9 16 17 12 9
11 10 4 6 10 21 9 11 5 5 11 5 10 20 12 12 6 15 17 11 9 4 7 9 6 12 12 13 14 19 13 7 10 11 13 1 9 9 7 5 6 6 8 8 8
11 2 3 6 10 16 13 10 14 13 11 13 15 20 7 13 10 11 16 13 13 12 7 6 5 13 14 8 16 15 15 8 3 4 3 5 8 11 4 6 5 7 7 14 13
1 1 3 10 12 17 10 12 5 9 16 25 12 11 19 26 10 16 19 16 11 17 9 7 6 3 4 13 11 5 9 8 3 5 5 5 6 8 6 10 7 8 13 11 8
1 2 3 14 10 16 17 11 6 6 19 11 8 9 13 24 14 22 18 5 17 20 14 3 5 3 7 11 19 11 12 8 4 4 6 2 8 11 13 14 14 16 12 11 11
1 2 4 4 11 15 17 7 7 14 2 6 7 6 16 23 7 20 14 8 20 19 11 7 2 5 5 2 5 10 16 12 12 9 2 3 8 2 7 5 4 4 6 6 7
1 3 2 3 7 10 13 8 5 13 8 7 6 4 10 17 7 10 10 15 14 22 14 9 3 5 2 2 5 5 6 6 3 3 11 7 8 1 4 5 6 9 9 8 7
1 1 2 3 2 10 18 21 5 14 5 4 8 9 14 14 2 14 13 8 12 10 14 8 4 8 12 9 8 6 7 6 9 8 5 8 4 9 6 8 6 6 8 10 10
2 0 1 3 4 10 16 19 7 11 4 6 2 18 16 11 7 8 7 5 6 12 9 13 7 5 6 6 13 8 7 7 8 14 9 6 7 8 9 8 6 6 7 9 11
2 0 0 1 3 16 20 26 14 6 9 11 9 15 14 10 11 7 9 5 13 1 9 2 1 6 4 2 9 15 15 11 16 15 12 5 10 7 2 4 5 9 12 14 15
1 1 1 1 2 14 16 24 14 12 3 7 12 11 9 7 7 10 7 10 7 11 14 5 7 5 9 3 7 2 18 16 14 14 17 12 18 4 6 8 10 11 14 17 14
Wind_Direction
214 233 253 242 209 207 206 198 191 188 186 174 170 176 169 156 139 142 213 207 169 23 35 312 146 234 175 68 92 110 67 166 199 163 227 159 133 147 64 121 113 145 157 157 141
213 223 245 267 299 210 206 197 193 192 183 174 164 177 168 142 101 225 255 169 133 38 111 194 170 226 110 21 3 103 132 206 205 190 196 173 157 161 127 126 19 69 40 130 145
216 213 227 238 234 237 204 196 191 188 179 169 160 164 157 135 45 233 193 176 134 89 111 294 200 216 80 347 295 169 200 214 234 219 164 166 154 164 131 218 202 174 153 151 153
220 218 218 225 241 269 206 195 194 184 175 160 154 154 158 168 186 282 169 167 137 102 95 96 213 120 145 184 336 316 249 207 220 176 145 167 131 155 187 214 182 166 161 157 161
223 220 216 224 245 263 205 195 195 179 166 156 153 149 150 205 249 328 156 146 108 127 154 163 204 143 175 129 337 151 312 287 307 155 146 127 178 209 206 43 121 133 161 164 167
254 232 215 223 238 257 202 196 193 167 161 156 151 160 177 190 143 144 127 113 120 107 92 101 220 138 117 117 100 1 310 293 276 189 144 131 167 159 227 125 121 152 174 173 174
262 268 215 233 227 245 198 192 173 162 158 158 151 159 181 205 141 120 110 81 75 114 108 46 50 92 115 75 352 6 320 300 255 220 174 126 347 232 165 151 154 175 177 183 179
286 268 217 214 228 239 191 183 168 161 153 154 150 140 186 104 130 144 108 72 68 59 93 58 83 80 33 41 26 27 289 258 272 154 263 127 237 236 168 147 179 179 188 190 188
293 289 209 205 227 260 190 177 148 151 151 151 141 144 166 135 127 145 135 106 100 86 84 73 61 75 66 108 68 288 241 220 278 204 136 161 239 210 168 171 189 192 195 198 196
260 295 219 210 220 250 194 166 152 149 149 130 125 97 179 182 134 134 107 147 114 109 77 57 77 100 117 166 193 182 230 233 191 214 186 197 260 231 186 175 200 199 204 198 199
249 283 251 207 230 249 188 174 166 168 160 143 154 112 142 129 115 161 147 109 138 145 150 158 153 193 184 189 101 45 234 195 223 211 143 210 229 226 200 196 201 208 210 217 208
260 287 268 227 245 237 205 202 151 130 127 45 143 95 126 140 125 141 153 146 171 167 133 147 217 185 163 182 181 187 329 217 303 109 148 210 238 247 180 218 211 202 212 216 215
265 286 272 221 237 246 198 181 142 119 100 101 138 114 150 134 135 153 162 141 164 154 174 179 181 171 168 179 172 215 223 229 234 155 94 118 280 228 235 232 216 230 226 223 207
256 282 261 218 203 214 184 148 156 90 92 149 185 156 137 122 119 145 181 126 75 169 178 208 157 162 182 186 183 202 217 257 179 168 216 174 257 239 217 231 215 233 212 225 209
272 283 294 212 230 183 156 150 122 63 157 166 152 162 143 140 128 195 173 89 146 125 150 117 168 174 178 186 177 210 36 231 247 234 159 226 204 261 136 228 235 234 229 226 214
284 283 308 244 262 171 148 155 93 117 180 176 140 150 158 150 162 141 164 124 99 98 66 36 49 197 187 182 186 96 69 35 41 349 237 212 179 241 198 197 228 230 227 219 210
277 292 284 208 222 151 149 154 108 209 165 161 161 160 163 143 124 169 176 170 153 143 169 109 178 318 150 166 208 86 118 132 200 216 240 282 196 234 202 221 210 219 219 200 183
282 276 218 229 153 141 165 151 167 161 167 148 134 147 165 132 144 176 167 182 215 154 138 164 200 189 189 200 171 188 174 181 176 196 213 53 236 241 221 217 242 251 243 165 176
304 222 235 206 191 138 160 178 187 168 140 120 118 151 144 177 135 167 197 194 199 186 137 148 244 161 192 166 162 184 209 221 77 40 89 212 279 300 236 253 237 232 186 196 188
267 227 214 162 190 149 168 195 115 124 119 141 155 178 172 181 147 187 182 201 197 201 212 208 117 183 142 149 222 183 178 199 213 163 219 257 266 230 228 250 236 226 214 198 170
94 228 359 165 194 158 194 188 112 150 136 148 148 154 173 180 176 187 191 244 189 191 195 279 116 259 166 198 175 181 208 213 212 162 180 182 257 207 208 208 201 223 214 186 174
35 197 7 251 182 186 183 179 110 156 114 132 110 102 169 173 156 190 203 200 182 174 188 217 104 147 181 22 113 197 224 212 215 212 249 166 269 218 257 279 225 192 167 160 163
44 324 9 291 187 180 166 201 116 165 173 144 121 147 147 166 162 189 183 205 168 171 173 186 214 104 94 33 117 181 219 212 154 89 210 189 253 305 274 262 244 179 175 175 162
121 196 346 46 295 168 171 187 126 173 169 121 115 107 140 176 198 188 172 176 187 173 183 131 141 161 201 217 118 183 202 198 205 209 198 234 198 286 260 240 230 208 185 168 169
34 67 257 128 201 183 181 173 135 172 186 142 118 166 161 171 152 180 148 135 181 169 181 186 177 136 216 208 179 200 199 197 203 230 205 209 210 248 259 229 207 171 149 166 186
117 129 291 247 302 176 183 187 174 153 152 184 162 175 179 157 186 143 121 172 179 103 174 296 188 169 297 324 192 208 227 231 219 229 245 201 241 226 8 90 162 187 180 193 200
120 82 222 208 296 177 187 182 177 134 17 154 150 147 200 175 127 141 106 84 141 156 179 121 122 121 227 8 106 310 215 215 225 218 226 207 231 176 214 210 214 191 196 205 200